STARLINK-36623, 67644

Orbit data source: Space-Track

STARLINK-36623, 67644 is a payload satellite owned by SpaceX/Seattle (US) in LEO that was launched on Fri, 30 Jan 2026 UTC via an FALCON 9 launch vehicle from the Air Force Eastern Test Range (AFETR). Payload-class satellites include a variety of spacecraft equipped with specific instruments for various scientific and technological missions. These include communications satellites like Starlink; space stations such as the ISS; scientific satellites like the Hubble; Earth observation satellites from companies like Planet Labs, Umbra, and HawkEye 360; GPS; miniature CubeSats for education and research; and military/defense satellites.

Loading next visibility...
Identifier
67644, 2026-020AD
Orbit
LEO
Country
Flag of USUS
Related business
Manufacturer
SpaceX/Seattle
Mission
Operational spacecraft
Bus & Motor
STARLINK V2MO, Unknown motor
Mass
575 kg wet, ~530 kg dry
Launch date (UTC)
2026-01-30 (2 months ago)
Launch vehicle
FALCON 9
Launch site
Air Force Eastern Test Range (AFETR)
Object type
Payload
Rocket body
Debris
Shape & HBR
Unknown shape, 17.7 m
Radar Cross Section
RCS unknown

Expand to show TLE details & history
Last TLE update: 5 hours ago

TLE from 5 hours ago
0 STARLINK-36623
1 67644U 26020AD  26104.82645375  .00006300  00000-0  23821-3 0  9998
2 67644  43.0009 295.3944 0000732 287.6263  72.4509 15.27585804 11641
Epoch: 2026-04-14T19:50Z
TLE epoch observation values (Epoch: 2026-04-14T19:50:05.604Z)
Latitude
0.00002°
Longitude
154.87395°
Altitude
482.656 km
Speed
7.626 km/s
True Right ascension
19h 41m 34s
True Declination
0° 00' 00"
Sunlit
Object was in daylight at epoch
Visualization orbit readout
Latitude
Unknown
Longitude
Unknown
Altitude
Unknown
Speed
Unknown
Apparent Right ascension
Unknown
Apparent Declination
Unknown
Sunlit
N/A
Visualization observer readout
Local Sidereal Time
07:05:14
Azimuth
Unknown
Elevation
Unknown
Doppler factor
Unknown
Orbital elements
Apogee altitude
485.479 km
Perigee altitude
484.474 km
Semi-major axis
6,863.114 km
Eccentricity
0.00007
Inclination
43.0009°
RAAN
295.3944°
Arg. of periapsis
287.6263°
True anomaly
72.4589°
Mean anomaly
72.4509°
Eccentric anomaly
72.4549°
Mean motion
3.81734 °/min
Orbital period
94.31 mins
BSTAR
0.00023821
Loading maneuver chart data...
Computing Atmospheric mass density...
Loading historical data...
Loading historical data...
Loading historical data...
Loading historical data...
Loading historical data...
Loading historical data...
Loading historical data...

Documentation

Showing up to 5 results
|